Regional Weather Roundup
Issued by NWS

Home | Current Version | Previous Version | Text Only | Print | Product List | Glossary On
Versions: 1 2 3 4 5 6 7 8 9 10 11 12 13 14 15 16 17 18 19 20 21 22 23 24 25 26 27 28 29 30 31 32 33 34 35 36 37 38 39 40 41 42 43 44 45 46 47 48 49 50
679
ASUS42 KKEY 232210
RWRKEY

FLORIDA REGIONAL WEATHER ROUNDUP FOR THE FLORIDA KEYS
NATIONAL WEATHER SERVICE KEY WEST FLORIDA
600 PM EDT SUN APR 23 2017

...SOUTH FLORIDA AND THE KEYS...

CITY           SKY/WX    TMP DP  RH WIND       PRES   REMARKS
FORT MYERS     PTSUNNY   81  69  67 SE9       29.76S
SW REGIONAL AP PTSUNNY   80  66  62 E10       29.76F
NAPLES         MOSUNNY   81  69  67 NE7       29.76F
MIAMI          LGT RAIN  74  70  87 CALM      29.75F
WEST KENDALL   CLOUDY    74  70  87 N8        29.75F
HOMESTEAD      CLOUDY    73  73 100 N10       29.74F
MARATHON       MOSUNNY   82  74  76 N9        29.75S
BOCA CHICA NAS MOSUNNY   81  71  71 NW13      29.76S
KEY WEST INTL  MOSUNNY   81  74  79 NW12      29.76S

...INTERNATIONAL WEATHER...

CITY           SKY/WX    TMP DP  RH WIND       PRES   REMARKS
NASSAU BAHAMAS PTSUNNY   79  75  89 SE14      29.76F
CANCUN MEXICO  MOSUNNY   86  66  51 NW13      29.81F
COZUMEL MEXICO MOSUNNY   84  70  61 NE10      29.80S

ADJACENT COASTAL WATERS...

STATION/POSITION TIME  SKY/WX   TEMP    WIND        PRES    WAVE
                                AIR SEA DIR/SP/G            HT/PER
                 (UTC)          (F)     (DEG/KT/KT) (MB)    (FT/S)
PULASKI SHOAL LI 2200            77     340/ 12/ 12 1008.4S
SAND KEY         2150            76     340/ 10/ 12 1008.5S
LONG KEY         2100            77 78  320/ 13/ 14 1007.7R
MOLASSES REEF    2200            75 79  360/  9/  9 1007.4F
FOWEY ROCKS      2200            72 77  350/ 13/ 14 1007.3F
Buoy 42097       2200                                 N/A     2/ 5

$$




USA.gov is the U.S. government's official web portal to all federal, state and local government web resources and services.